Погода в Покровке

Россия / Оренбургская область     51°59′23″N   53°52′28″E
темп.,
°C
ветер,
м/с
пор.,
м/с
влажн.,
%
обл.,
%
осадки,
мм/ч
давл.,
гПа
погр.,
м
3 августа, вт
вт323:00+26в493412 0.0 1014134
02:00+24вюв49394 0.0 1014124
05:00+22вюв34425 0.0 101453
08:00+27юв273186 0.0 1014193
11:00+35ю46197 0.0 10131044
14:00+39юз561283 0.0 10114705
17:00+39з861465 0.0 10104130
20:00+34зюз112011 0.0 101015
4 августа, ср
ср423:00+29ю112584 0.0 101113
02:00+26зсз11290 0.0 101211
05:00+24юв11325 0.0 101211
08:00+29ююв23255 0.0 1012125
11:00+37юз571312 0.0 1011952
14:00+40юз561057 0.0 10104726
17:00+36в541491 0.0 1009497
20:00+36ю3513100 0.0 1008105
5 августа, чт
чт523:00+28зюз2323100 0.0 100923
02:00+25ссз6134395 0.0 1009315
05:00+22ссз41168100 0.0 1010246
08:00+22ссв476193 0.0 1011209
11:00+28сз6838100 0.0 1012982
14:00+29зсз4534100 0.0 1011970
17:00+29сз4433100 0.0 10111362
20:00+28с67330 0.0 10101336
6 августа, пт
пт623:00+21ссз34460 0.0 101247
02:00+21с4104314 0.0 1013255
05:00+18с36544 0.0 101391
08:00+20ссв58568 0.0 1015347
11:00+25ссв67355 0.0 10151660
14:00+28с662671 0.0 10142125
17:00+28с662221 0.0 10142263
20:00+26ссв57245 0.0 1014462
7 августа, сб
сб723:00+20ссв22369 0.0 101511
02:00+18ссв344246 0.0 101644
05:00+16св334422 0.0 101730
08:00+20св34365 0.0 1017181
11:00+26ссв33245 0.0 10171297
14:00+29ссв54175 0.0 10171831
17:00+30св55195 0.0 10162022
20:00+28св572418 0.0 1017546